Location: Deurze
(52.9838°N, 6.6090°E)
Time: 19:04:40
(UTC+00:00)

CZ-4 R/B - Pass Details

Date: 11 March 2026
Orbit: 490 x 538 km, 97.6° (Epoch: 20 April)

Event Time Altitude Azimuth Distance (km) Brightness Sun altitude
Exits shadow 19:03:39 13° 155° (SSE) 1,582 3.3 -14.7°
Maximum altitude 19:07:00 70° 73° (ENE) 579 1.2 -15.2°
Drops below altitude 10° 19:10:55 10° 350° (N) 1,815 4.3 -15.8°
Sets 19:13:03 0° 348° (NNW) 2,713 5.2 -16.1°
